Regional Weather Roundup
Issued by NWS

Home | Current Version | Previous Version | Text Only | Print | Product List | Glossary On
Versions: 1 2 3 4 5 6 7 8 9 10 11 12 13 14 15 16 17 18 19 20 21 22 23 24 25 26 27 28 29 30 31 32 33 34 35 36 37 38 39 40 41 42 43 44 45 46 47 48 49 50
000
ASUS43 KOAX 282310
RWRNE

WEATHER ROUNDUP FOR NEBRASKA
NATIONAL WEATHER SERVICE OMAHA NE
500 PM CST WED JAN 28 2015

NOTES: SATELLITE DATA IS BEING USED TO AUGMENT CLOUD COVER ABOVE
       12000 FEET.
       "FAIR" INDICATES FEW OR NO CLOUDS BELOW 12,000 FEET WITH NO
       SIGNIFICANT WEATHER AND/OR OBSTRUCTIONS TO VISIBILITY.

  * THESE STATIONS DO NOT REPORT WEATHER SUCH AS RAIN...SNOW OR FOG.

NEZ001>004-019>022-054>056-290000-
NEBRASKA PANHANDLE

CITY           SKY/WX    TMP DP  RH WIND       PRES   REMARKS
SCOTTSBLUFF    CLOUDY    48  38  68 NW17      30.10R
ALLIANCE       CLOUDY    49  31  49 NW30G40   30.04R
CHADRON        LGT RAIN  48  34  58 N15G29    30.07R
KIMBALL        PTSUNNY   46  36  68 NW20G30   30.09R
SIDNEY         PTCLDY    48  35  60 NW26G37   30.06R
$$

NEZ057>060-069>072-079>082-290000-
SOUTHWEST NEBRASKA

CITY           SKY/WX    TMP DP  RH WIND       PRES   REMARKS
NORTH PLATTE   MOCLDY    59  24  26 NW18G31   29.92R
IMPERIAL       PTCLDY    58  33  39 NW24G37   29.96R
LEXINGTON      CLEAR     61  31  32 NW22      29.85R
MCCOOK         PTCLDY    65  31  28 NW32G40   29.88R
OGALLALA       PTCLDY    56  29  36 N17G24    29.97R
$$

NEZ005>010-023>029-035>040-094-290000-
NORTH CENTRAL NEBRASKA

CITY           SKY/WX    TMP DP  RH WIND       PRES   REMARKS
VALENTINE      MOCLDY    55  28  35 NW18G32   29.88R
AINSWORTH      MOCLDY    55  28  34 NW32G40   29.85R
BROKEN BOW     CLEAR     60  30  32 NW29G40   29.83R
O`NEILL        CLEAR     58  36  42 NW20      29.77R
ORD            CLEAR     61  29  29 NW22      29.77R
THEDFORD       MOCLDY    57  29  35 NW24G39   29.90R
$$

NEZ041-046>049-061>064-073>077-083>087-290000-
SOUTH CENTRAL NEBRASKA

CITY           SKY/WX    TMP DP  RH WIND       PRES   REMARKS
GRAND ISLAND   CLEAR     64  33  31 NW21      29.75R
AURORA         CLEAR     65  33  30 NW15      29.73R
HASTINGS         N/A     66  29  24 NW21      29.75R
HEBRON         CLEAR     67  27  22 NW9       29.73R
HOLDREGE       CLEAR     64  31  28 NW22G29   29.81R
KEARNEY *      CLEAR     64  30  27 NW20G29   29.79R
YORK           CLEAR     64  36  34 NW13      29.72R
$$

NEZ011>018-030>034-042>045-290000-
NORTHEAST NEBRASKA

CITY           SKY/WX    TMP DP  RH WIND       PRES   REMARKS
NORFOLK        CLEAR     59  37  44 NW16      29.70R
ALBION         CLEAR     62  32  33 NW17G25   29.73R
BLAIR          PTCLDY    55  34  45 SW5       29.68S
COLUMBUS *     CLEAR     63  36  36 NW16G22   29.71R
FREMONT        CLEAR     56  35  44 W5        29.69S
TEKAMAH        CLEAR     54  37  52 S3        29.69R
WAYNE          CLEAR     55  38  52 NW10      29.70R
$$

NEZ050>053-065>068-078-088>093-290000-
SOUTHEAST NEBRASKA

CITY           SKY/WX    TMP DP  RH WIND       PRES   REMARKS
LINCOLN        CLEAR     62  35  36 NW6       29.71R
OMAHA EPPLEY   PTCLDY    57  36  45 W3        29.69R
BEATRICE       CLEAR     64  35  33 W7        29.70S
FALLS CITY     MOCLDY    66  38  35 W15       29.67R
NEBRASKA CITY  MOCLDY    61  29  30 W12       29.69R
PLATTSMOUTH    PTCLDY    59  33  36 W13       29.69R
$$

NEZ044-045-051>053-067-290000-
OMAHA AREA

CITY           SKY/WX    TMP DP  RH WIND       PRES   REMARKS
OMAHA EPPLEY   PTCLDY    57  36  45 W3        29.69R
BLAIR          PTCLDY    55  34  45 SW5       29.68S
FREMONT        CLEAR     56  35  44 W5        29.69S
MILLARD        PTCLDY    58  36  43 S3        29.67F
OFFUTT AFB     PTCLDY    58  37  45 W12       29.69R
PLATTSMOUTH    PTCLDY    59  33  36 W13       29.69R
WAHOO          FAIR      57  32  39 W3        29.69R
$$



USA.gov is the U.S. government's official web portal to all federal, state and local government web resources and services.